| time (UTC) | temp F | wind direction | speed MPH | gust MPH | rain 1hr in | rain 24hr in | rain mn in | humidity % | barometer mb |
| 20260510180517 | 96 | 201 | 3.0 | 11.0 | 0.00 | 0.00 | 0.00 | 100 | 1018.7 |
| 20260510180157 | 95 | 262 | 3.0 | 11.0 | 0.00 | 0.00 | 0.00 | 100 | 1018.8 |
| 20260510180017 | 95 | 262 | 3.0 | 11.0 | 0.00 | 0.00 | 0.00 | 100 | 1018.8 |
| 20260510175517 | 94 | 274 | 11.0 | 12.0 | 0.00 | 0.00 | 0.00 | 100 | 1018.8 |
| 20260510175145 | 95 | 313 | 3.0 | 10.0 | 0.00 | 0.00 | 0.00 | 100 | 1018.9 |
| 20260510175017 | 95 | 313 | 3.0 | 10.0 | 0.00 | 0.00 | 0.00 | 100 | 1018.9 |
| 20260510174739 | 94 | 317 | 3.0 | 10.0 | 0.00 | 0.00 | 0.00 | 100 | 1019.1 |
| 20260510174636 | 95 | 317 | 9.0 | 9.0 | 0.00 | 0.00 | 0.00 | 100 | 1018.9 |
| 20260510174517 | 95 | 317 | 9.0 | 9.0 | 0.00 | 0.00 | 0.00 | 100 | 1018.9 |
| 20260510174155 | 94 | 262 | 4.0 | 6.0 | 0.00 | 0.00 | 0.00 | 100 | 1019.0 |
| 20260510174017 | 94 | 262 | 4.0 | 6.0 | 0.00 | 0.00 | 0.00 | 100 | 1019.0 |
| 20260510173517 | 94 | 317 | 3.0 | 10.0 | 0.00 | 0.00 | 0.00 | 100 | 1019.1 |
| 20260510173117 | 93 | 317 | 10.0 | 10.0 | 0.00 | 0.00 | 0.00 | 100 | 1019.2 |
| 20260510173017 | 93 | 317 | 10.0 | 10.0 | 0.00 | 0.00 | 0.00 | 100 | 1019.2 |
| 20260510172645 | 94 | 237 | 5.0 | 9.0 | 0.00 | 0.00 | 0.00 | 100 | 1019.1 |
| 20260510172517 | 94 | 237 | 5.0 | 9.0 | 0.00 | 0.00 | 0.00 | 100 | 1019.1 |
| 20260510172123 | 96 | 296 | 3.0 | 9.0 | 0.00 | 0.00 | 0.00 | 100 | 1019.2 |
| 20260510172017 | 96 | 296 | 3.0 | 9.0 | 0.00 | 0.00 | 0.00 | 100 | 1019.2 |
| 20260510171627 | 93 | 234 | 7.0 | 10.0 | 0.00 | 0.00 | 0.00 | 100 | 1019.2 |
| 20260510171517 | 93 | 234 | 7.0 | 10.0 | 0.00 | 0.00 | 0.00 | 100 | 1019.2 |
| 20260510171120 | 94 | 220 | 0.0 | 12.0 | 0.00 | 0.00 | 0.00 | 100 | 1019.2 |
| 20260510171017 | 94 | 220 | 0.0 | 12.0 | 0.00 | 0.00 | 0.00 | 100 | 1019.2 |
| 20260510170711 | 91 | 241 | 12.0 | 12.0 | 0.00 | 0.00 | 0.00 | 100 | 1019.2 |
| 20260510170604 | 91 | 241 | 12.0 | 12.0 | 0.00 | 0.00 | 0.00 | 100 | 1019.2 |
| 20260510170517 | 91 | 241 | 12.0 | 12.0 | 0.00 | 0.00 | 0.00 | 100 | 1019.2 |
| 20260510170017 | 91 | 255 | 10.0 | 10.0 | 0.00 | 0.00 | 0.00 | 100 | 1019.3 |
| 20260510165614 | 91 | 285 | 5.0 | 6.0 | 0.00 | 0.00 | 0.00 | 100 | 1019.3 |
| 20260510165546 | 89 | 233 | 2.0 | 7.0 | 0.00 | 0.00 | 0.00 | 100 | 1019.4 |
| 20260510165517 | 91 | 285 | 5.0 | 6.0 | 0.00 | 0.00 | 0.00 | 100 | 1019.3 |
| 20260510165315 | 93 | 181 | 4.0 | 6.0 | 0.00 | 0.00 | 0.00 | 100 | 1019.3 |
| 20260510165017 | 93 | 181 | 4.0 | 6.0 | 0.00 | 0.00 | 0.00 | 100 | 1019.3 |
| 20260510164959 | 91 | 237 | 3.0 | 8.0 | 0.00 | 0.00 | 0.00 | 100 | 1019.3 |
| 20260510164517 | 91 | 237 | 3.0 | 8.0 | 0.00 | 0.00 | 0.00 | 100 | 1019.3 |
| 20260510164018 | 89 | 233 | 2.0 | 7.0 | 0.00 | 0.00 | 0.00 | 100 | 1019.4 |
| 20260510163957 | 91 | 232 | 6.0 | 9.0 | 0.00 | 0.00 | 0.00 | 100 | 1019.4 |
| 20260510163650 | 90 | 284 | 5.0 | 7.0 | 0.00 | 0.00 | 0.00 | 100 | 1019.5 |
| 20260510163528 | 92 | 289 | 1.0 | 8.0 | 0.00 | 0.00 | 0.00 | 100 | 1019.4 |
| 20260510163517 | 91 | 232 | 6.0 | 9.0 | 0.00 | 0.00 | 0.00 | 100 | 1019.4 |
| 20260510163017 | 92 | 289 | 1.0 | 8.0 | 0.00 | 0.00 | 0.00 | 100 | 1019.4 |
| 20260510162948 | 91 | 265 | 5.0 | 6.0 | 0.00 | 0.00 | 0.00 | 100 | 1019.5 |
| 20260510162517 | 91 | 265 | 5.0 | 6.0 | 0.00 | 0.00 | 0.00 | 100 | 1019.5 |
| 20260510162017 | 90 | 284 | 5.0 | 7.0 | 0.00 | 0.00 | 0.00 | 100 | 1019.5 |
| 20260510161931 | 89 | 255 | 3.0 | 8.0 | 0.00 | 0.00 | 0.00 | 100 | 1019.6 |
| 20260510161517 | 90 | 254 | 4.0 | 9.0 | 0.00 | 0.00 | 0.00 | 100 | 1019.6 |
| 20260510161018 | 89 | 255 | 3.0 | 8.0 | 0.00 | 0.00 | 0.00 | 100 | 1019.6 |
| 20260510160517 | 90 | 213 | 7.0 | 9.0 | 0.00 | 0.00 | 0.00 | 100 | 1019.6 |
| 20260510160017 | 93 | 260 | 1.0 | 9.0 | 0.00 | 0.00 | 0.00 | 100 | 1019.6 |
| 20260510155733 | 89 | 264 | 6.0 | 8.0 | 0.00 | 0.00 | 0.00 | 100 | 1019.6 |
| 20260510155517 | 89 | 264 | 6.0 | 8.0 | 0.00 | 0.00 | 0.00 | 100 | 1019.6 |
| 20260510155017 | 91 | 194 | 3.0 | 8.0 | 0.00 | 0.00 | 0.00 | 100 | 1019.7 |
| 20260510154701 | 92 | 227 | 3.0 | 11.0 | 0.00 | 0.00 | 0.00 | 100 | 1019.6 |
| 20260510154517 | 92 | 227 | 3.0 | 11.0 | 0.00 | 0.00 | 0.00 | 100 | 1019.6 |
| 20260510154418 | 93 | 288 | 3.0 | 9.0 | 0.00 | 0.00 | 0.00 | 100 | 1019.6 |
| 20260510154017 | 93 | 288 | 3.0 | 9.0 | 0.00 | 0.00 | 0.00 | 100 | 1019.6 |
| 20260510153943 | 91 | 225 | 2.0 | 10.0 | 0.00 | 0.00 | 0.00 | 100 | 1019.7 |
| 20260510153517 | 91 | 225 | 2.0 | 10.0 | 0.00 | 0.00 | 0.00 | 100 | 1019.7 |
| 20260510153017 | 90 | 205 | 4.0 | 9.0 | 0.00 | 0.00 | 0.00 | 100 | 1019.7 |
| 20260510152720 | 90 | 254 | 6.0 | 9.0 | 0.00 | 0.00 | 0.00 | 100 | 1019.7 |
| 20260510152517 | 90 | 254 | 6.0 | 9.0 | 0.00 | 0.00 | 0.00 | 100 | 1019.7 |
| 20260510152325 | 90 | 257 | 4.0 | 9.0 | 0.00 | 0.00 | 0.00 | 100 | 1019.7 |
| 20260510152254 | 90 | 257 | 4.0 | 9.0 | 0.00 | 0.00 | 0.00 | 100 | 1019.7 |
| 20260510152018 | 90 | 257 | 4.0 | 9.0 | 0.00 | 0.00 | 0.00 | 100 | 1019.7 |
| 20260510151738 | 90 | 230 | 6.0 | 11.0 | 0.00 | 0.00 | 0.00 | 100 | 1019.6 |
| 20260510151518 | 90 | 230 | 6.0 | 11.0 | 0.00 | 0.00 | 0.00 | 100 | 1019.6 |
| 20260510151017 | 89 | 191 | 5.0 | 7.0 | 0.00 | 0.00 | 0.00 | 100 | 1019.5 |
| 20260510150904 | 90 | 222 | 4.0 | 9.0 | 0.00 | 0.00 | 0.00 | 100 | 1019.6 |
| 20260510150517 | 90 | 222 | 4.0 | 9.0 | 0.00 | 0.00 | 0.00 | 100 | 1019.6 |
| 20260510150331 | 89 | 213 | 8.0 | 9.0 | 0.00 | 0.00 | 0.00 | 100 | 1019.5 |
| 20260510150017 | 88 | 172 | 3.0 | 10.0 | 0.00 | 0.00 | 0.00 | 100 | 1019.5 |
| 20260510145517 | 89 | 213 | 8.0 | 9.0 | 0.00 | 0.00 | 0.00 | 100 | 1019.5 |
| 20260510145220 | 88 | 226 | 4.0 | 11.0 | 0.00 | 0.00 | 0.00 | 100 | 1019.5 |
| 20260510145017 | 88 | 226 | 4.0 | 11.0 | 0.00 | 0.00 | 0.00 | 100 | 1019.5 |
| 20260510144748 | 87 | 233 | 8.0 | 11.0 | 0.00 | 0.00 | 0.00 | 100 | 1019.5 |
| 20260510144517 | 87 | 233 | 8.0 | 11.0 | 0.00 | 0.00 | 0.00 | 100 | 1019.5 |
| 20260510144017 | 89 | 195 | 8.0 | 10.0 | 0.00 | 0.00 | 0.00 | 100 | 1019.5 |
| 20260510143945 | 87 | 180 | 6.0 | 8.0 | 0.00 | 0.00 | 0.00 | 100 | 1019.5 |
| 20260510143730 | 89 | 254 | 10.0 | 10.0 | 0.00 | 0.00 | 0.00 | 100 | 1019.5 |
| 20260510143518 | 89 | 254 | 10.0 | 10.0 | 0.00 | 0.00 | 0.00 | 100 | 1019.5 |
| 20260510143018 | 89 | 234 | 6.0 | 10.0 | 0.00 | 0.00 | 0.00 | 100 | 1019.5 |
| 20260510142518 | 87 | 210 | 5.0 | 7.0 | 0.00 | 0.00 | 0.00 | 100 | 1019.5 |
| 20260510142252 | 87 | 180 | 6.0 | 8.0 | 0.00 | 0.00 | 0.00 | 100 | 1019.5 |
| 20260510142018 | 87 | 180 | 6.0 | 8.0 | 0.00 | 0.00 | 0.00 | 100 | 1019.5 |
| 20260510141803 | 87 | 205 | 1.0 | 8.0 | 0.00 | 0.00 | 0.00 | 100 | 1019.5 |
| 20260510141518 | 87 | 205 | 1.0 | 8.0 | 0.00 | 0.00 | 0.00 | 100 | 1019.5 |
| 20260510141018 | 87 | 194 | 3.0 | 9.0 | 0.00 | 0.00 | 0.00 | 100 | 1019.3 |
| 20260510140518 | 87 | 217 | 3.0 | 6.0 | 0.00 | 0.00 | 0.00 | 100 | 1019.3 |
| 20260510140018 | 87 | 180 | 3.0 | 5.0 | 0.00 | 0.00 | 0.00 | 100 | 1019.2 |
| 20260510135843 | 87 | 157 | 3.0 | 5.0 | 0.00 | 0.00 | 0.00 | 100 | 1019.2 |
| 20260510135518 | 87 | 157 | 3.0 | 5.0 | 0.00 | 0.00 | 0.00 | 100 | 1019.2 |
| 20260510135018 | 86 | 198 | 0.0 | 5.0 | 0.00 | 0.00 | 0.00 | 100 | 1019.2 |
| 20260510135002 | 85 | 247 | 3.0 | 5.0 | 0.00 | 0.00 | 0.00 | 100 | 1019.2 |
| 20260510134518 | 85 | 247 | 3.0 | 5.0 | 0.00 | 0.00 | 0.00 | 100 | 1019.2 |
| 20260510134018 | 84 | 217 | 3.0 | 5.0 | 0.00 | 0.00 | 0.00 | 100 | 1019.2 |
| 20260510133518 | 84 | 226 | 2.0 | 3.0 | 0.00 | 0.00 | 0.00 | 100 | 1019.3 |
| 20260510133019 | 83 | 202 | 2.0 | 3.0 | 0.00 | 0.00 | 0.00 | 100 | 1019.2 |
| 20260510132518 | 82 | 57 | 0.0 | 0.0 | 0.00 | 0.00 | 0.00 | 100 | 1019.2 |
| 20260510132018 | 82 | 57 | 0.0 | 0.0 | 0.00 | 0.00 | 0.00 | 100 | 1019.3 |
| 20260510131716 | 80 | 57 | 0.0 | 0.0 | 0.00 | 0.00 | 0.00 | 100 | 1019.2 |
| 20260510131518 | 80 | 57 | 0.0 | 0.0 | 0.00 | 0.00 | 0.00 | 100 | 1019.2 |
| 20260510131246 | 80 | 57 | 0.0 | 0.0 | 0.00 | 0.00 | 0.00 | 100 | 1019.3 |
| 20260510131018 | 80 | 57 | 0.0 | 0.0 | 0.00 | 0.00 | 0.00 | 100 | 1019.3 |
| 20260510130518 | 80 | 57 | 0.0 | 0.0 | 0.00 | 0.00 | 0.00 | 100 | 1019.2 |
| 20260510130134 | 79 | 57 | 0.0 | 0.0 | 0.00 | 0.00 | 0.00 | 100 | 1019.2 |
| 20260510130018 | 79 | 57 | 0.0 | 0.0 | 0.00 | 0.00 | 0.00 | 100 | 1019.2 |
| 20260510125518 | 79 | 57 | 0.0 | 0.0 | 0.00 | 0.00 | 0.00 | 100 | 1019.1 |
| 20260510125018 | 78 | 57 | 0.0 | 0.0 | 0.00 | 0.00 | 0.00 | 100 | 1019.1 |
| 20260510124518 | 77 | 57 | 0.0 | 0.0 | 0.00 | 0.00 | 0.00 | 100 | 1019.1 |
| 20260510124018 | 77 | 57 | 0.0 | 0.0 | 0.00 | 0.00 | 0.00 | 100 | 1019.1 |
| 20260510123655 | 77 | 57 | 0.0 | 0.0 | 0.00 | 0.00 | 0.00 | 100 | 1019.1 |
| 20260510123518 | 77 | 57 | 0.0 | 0.0 | 0.00 | 0.00 | 0.00 | 100 | 1019.1 |
| 20260510123150 | 76 | 57 | 0.0 | 0.0 | 0.00 | 0.00 | 0.00 | 100 | 1019.0 |
| 20260510123018 | 76 | 57 | 0.0 | 0.0 | 0.00 | 0.00 | 0.00 | 100 | 1019.0 |
| 20260510122802 | 76 | 57 | 0.0 | 0.0 | 0.00 | 0.00 | 0.00 | 100 | 1018.9 |
| 20260510122518 | 76 | 57 | 0.0 | 0.0 | 0.00 | 0.00 | 0.00 | 100 | 1018.9 |
| 20260510122018 | 75 | 57 | 0.0 | 0.0 | 0.00 | 0.00 | 0.00 | 100 | 1018.8 |
| 20260510121518 | 75 | 57 | 0.0 | 0.0 | 0.00 | 0.00 | 0.00 | 100 | 1018.8 |
| 20260510121018 | 74 | 57 | 0.0 | 0.0 | 0.00 | 0.00 | 0.00 | 100 | 1018.8 |
| 20260510120809 | 74 | 57 | 0.0 | 0.0 | 0.00 | 0.00 | 0.00 | 100 | 1018.6 |
| 20260510120518 | 74 | 57 | 0.0 | 0.0 | 0.00 | 0.00 | 0.00 | 100 | 1018.6 |
| 20260510120018 | 74 | 57 | 0.0 | 0.0 | 0.00 | 0.00 | 0.00 | 100 | 1018.4 |
| 20260510115518 | 73 | 57 | 0.0 | 0.0 | 0.00 | 0.00 | 0.00 | 100 | 1018.4 |
| 20260510115018 | 73 | 57 | 0.0 | 0.0 | 0.00 | 0.00 | 0.00 | 100 | 1018.3 |
| 20260510114518 | 73 | 57 | 0.0 | 0.0 | 0.00 | 0.00 | 0.00 | 100 | 1018.3 |
| 20260510114018 | 73 | 57 | 0.0 | 0.0 | 0.00 | 0.00 | 0.00 | 100 | 1018.3 |
| 20260510113740 | 73 | 57 | 0.0 | 0.0 | 0.00 | 0.00 | 0.00 | 100 | 1018.0 |
| 20260510113518 | 73 | 57 | 0.0 | 0.0 | 0.00 | 0.00 | 0.00 | 100 | 1018.0 |
| 20260510113018 | 72 | 57 | 0.0 | 0.0 | 0.00 | 0.00 | 0.00 | 100 | 1017.9 |
| 20260510112518 | 72 | 57 | 0.0 | 0.0 | 0.00 | 0.00 | 0.00 | 100 | 1017.8 |
| 20260510112018 | 72 | 57 | 0.0 | 0.0 | 0.00 | 0.00 | 0.00 | 100 | 1017.7 |
| 20260510111518 | 72 | 57 | 0.0 | 0.0 | 0.00 | 0.00 | 0.00 | 100 | 1017.5 |
| 20260510111018 | 72 | 57 | 0.0 | 0.0 | 0.00 | 0.00 | 0.00 | 100 | 1017.4 |
| 20260510110518 | 72 | 57 | 0.0 | 0.0 | 0.00 | 0.00 | 0.00 | 100 | 1017.2 |
| 20260510110116 | 72 | 57 | 0.0 | 0.0 | 0.00 | 0.00 | 0.00 | 100 | 1017.0 |
| 20260510110018 | 72 | 57 | 0.0 | 0.0 | 0.00 | 0.00 | 0.00 | 100 | 1017.0 |
| 20260510105518 | 72 | 57 | 0.0 | 0.0 | 0.00 | 0.00 | 0.00 | 100 | 1017.0 |
| 20260510105018 | 72 | 57 | 0.0 | 0.0 | 0.00 | 0.00 | 0.00 | 100 | 1016.8 |
| 20260510104518 | 72 | 57 | 0.0 | 0.0 | 0.00 | 0.00 | 0.00 | 100 | 1016.7 |
| 20260510104253 | 73 | 57 | 0.0 | 0.0 | 0.00 | 0.00 | 0.00 | 100 | 1016.6 |
| 20260510104018 | 73 | 57 | 0.0 | 0.0 | 0.00 | 0.00 | 0.00 | 100 | 1016.6 |
| 20260510103720 | 73 | 57 | 0.0 | 1.0 | 0.00 | 0.00 | 0.00 | 100 | 1016.6 |
| 20260510103519 | 73 | 57 | 0.0 | 1.0 | 0.00 | 0.00 | 0.00 | 100 | 1016.6 |
| 20260510103019 | 73 | 104 | 0.0 | 4.0 | 0.00 | 0.00 | 0.00 | 100 | 1016.5 |
| 20260510102730 | 72 | 92 | 3.0 | 7.0 | 0.00 | 0.00 | 0.00 | 100 | 1016.2 |
| 20260510102656 | 72 | 92 | 3.0 | 7.0 | 0.00 | 0.00 | 0.00 | 100 | 1016.2 |
| 20260510102519 | 72 | 92 | 3.0 | 7.0 | 0.00 | 0.00 | 0.00 | 100 | 1016.2 |
| 20260510102151 | 72 | 146 | 2.0 | 6.0 | 0.00 | 0.00 | 0.00 | 100 | 1016.3 |
| 20260510102019 | 72 | 146 | 2.0 | 6.0 | 0.00 | 0.00 | 0.00 | 100 | 1016.3 |
| 20260510101557 | 72 | 170 | 4.0 | 6.0 | 0.00 | 0.00 | 0.00 | 100 | 1016.3 |
| 20260510101519 | 72 | 170 | 4.0 | 6.0 | 0.00 | 0.00 | 0.00 | 100 | 1016.3 |
| 20260510101019 | 71 | 165 | 2.0 | 5.0 | 0.00 | 0.00 | 0.00 | 100 | 1016.3 |
| 20260510100731 | 71 | 181 | 3.0 | 4.0 | 0.00 | 0.00 | 0.00 | 100 | 1016.4 |
| 20260510100519 | 71 | 181 | 3.0 | 4.0 | 0.00 | 0.00 | 0.00 | 100 | 1016.4 |
| 20260510100019 | 70 | 178 | 2.0 | 2.0 | 0.00 | 0.00 | 0.00 | 100 | 1016.5 |
| 20260510095519 | 70 | 189 | 2.0 | 3.0 | 0.00 | 0.00 | 0.00 | 100 | 1016.5 |
| 20260510095019 | 70 | 181 | 1.0 | 3.0 | 0.00 | 0.00 | 0.00 | 100 | 1016.5 |
| 20260510094519 | 70 | 164 | 1.0 | 1.0 | 0.00 | 0.00 | 0.00 | 100 | 1016.6 |
| 20260510094019 | 70 | 136 | 0.0 | 1.0 | 0.00 | 0.00 | 0.00 | 100 | 1016.6 |
| 20260510093519 | 70 | 153 | 1.0 | 1.0 | 0.00 | 0.00 | 0.00 | 100 | 1016.7 |
| 20260510093019 | 70 | 113 | 0.0 | 2.0 | 0.00 | 0.00 | 0.00 | 100 | 1016.7 |
| 20260510092519 | 70 | 122 | 0.0 | 1.0 | 0.00 | 0.00 | 0.00 | 100 | 1016.7 |
| 20260510092019 | 70 | 154 | 0.0 | 0.0 | 0.00 | 0.00 | 0.00 | 100 | 1016.7 |
| 20260510091519 | 70 | 154 | 0.0 | 1.0 | 0.00 | 0.00 | 0.00 | 100 | 1016.7 |
| 20260510091019 | 71 | 151 | 0.0 | 0.0 | 0.00 | 0.00 | 0.00 | 100 | 1016.7 |
| 20260510090603 | 70 | 151 | 0.0 | 0.0 | 0.00 | 0.00 | 0.00 | 100 | 1016.7 |
| 20260510090519 | 70 | 151 | 0.0 | 0.0 | 0.00 | 0.00 | 0.00 | 100 | 1016.7 |
| 20260510090019 | 71 | 151 | 0.0 | 0.0 | 0.00 | 0.00 | 0.00 | 100 | 1016.6 |
| 20260510085519 | 71 | 151 | 0.0 | 1.0 | 0.00 | 0.00 | 0.00 | 100 | 1016.6 |
| 20260510085331 | 71 | 78 | 0.0 | 1.0 | 0.00 | 0.00 | 0.00 | 100 | 1016.5 |
| 20260510085019 | 71 | 78 | 0.0 | 1.0 | 0.00 | 0.00 | 0.00 | 100 | 1016.5 |
| 20260510084633 | 71 | 163 | 1.0 | 1.0 | 0.00 | 0.00 | 0.00 | 100 | 1016.5 |
| 20260510084519 | 71 | 163 | 1.0 | 1.0 | 0.00 | 0.00 | 0.00 | 100 | 1016.5 |
| 20260510084019 | 71 | 50 | 0.0 | 1.0 | 0.00 | 0.00 | 0.00 | 100 | 1016.5 |
| 20260510083731 | 71 | 80 | 0.0 | 1.0 | 0.00 | 0.00 | 0.00 | 100 | 1016.5 |
| 20260510083519 | 71 | 80 | 0.0 | 1.0 | 0.00 | 0.00 | 0.00 | 100 | 1016.5 |
| 20260510083019 | 71 | 78 | 0.0 | 0.0 | 0.00 | 0.00 | 0.00 | 100 | 1016.6 |
| 20260510082712 | 71 | 78 | 0.0 | 0.0 | 0.00 | 0.00 | 0.00 | 100 | 1016.7 |
| 20260510082519 | 71 | 78 | 0.0 | 0.0 | 0.00 | 0.00 | 0.00 | 100 | 1016.6 |
| 20260510082201 | 71 | 78 | 0.0 | 0.0 | 0.00 | 0.00 | 0.00 | 100 | 1016.6 |
| 20260510082019 | 71 | 78 | 0.0 | 0.0 | 0.00 | 0.00 | 0.00 | 100 | 1016.6 |
| 20260510081519 | 71 | 78 | 0.0 | 0.0 | 0.00 | 0.00 | 0.00 | 100 | 1016.7 |
| 20260510081154 | 72 | 78 | 0.0 | 0.0 | 0.00 | 0.00 | 0.00 | 100 | 1016.7 |
| 20260510081019 | 72 | 78 | 0.0 | 0.0 | 0.00 | 0.00 | 0.00 | 100 | 1016.7 |
| 20260510080519 | 72 | 78 | 0.0 | 1.0 | 0.00 | 0.00 | 0.00 | 100 | 1016.6 |
| 20260510080057 | 72 | 70 | 0.0 | 2.0 | 0.00 | 0.00 | 0.00 | 100 | 1016.6 |
| 20260510080019 | 72 | 70 | 0.0 | 2.0 | 0.00 | 0.00 | 0.00 | 100 | 1016.6 |
| 20260510075823 | 72 | 104 | 1.0 | 2.0 | 0.00 | 0.00 | 0.00 | 100 | 1016.7 |
| 20260510075519 | 72 | 104 | 1.0 | 2.0 | 0.00 | 0.00 | 0.00 | 100 | 1016.7 |
| 20260510075309 | 72 | 99 | 1.0 | 2.0 | 0.00 | 0.00 | 0.00 | 100 | 1016.7 |
| 20260510075019 | 72 | 99 | 1.0 | 2.0 | 0.00 | 0.00 | 0.00 | 100 | 1016.7 |
| 20260510074519 | 72 | 108 | 1.0 | 1.0 | 0.00 | 0.00 | 0.00 | 100 | 1016.7 |
| 20260510074122 | 73 | 97 | 1.0 | 1.0 | 0.00 | 0.00 | 0.00 | 100 | 1016.8 |
| 20260510074019 | 73 | 97 | 1.0 | 1.0 | 0.00 | 0.00 | 0.00 | 100 | 1016.8 |
| 20260510073519 | 73 | 67 | 0.0 | 1.0 | 0.00 | 0.00 | 0.00 | 100 | 1016.8 |
| 20260510073019 | 73 | 67 | 1.0 | 4.0 | 0.00 | 0.00 | 0.00 | 100 | 1016.9 |
| 20260510072519 | 73 | 104 | 0.0 | 0.0 | 0.00 | 0.00 | 0.00 | 100 | 1016.8 |
| 20260510072019 | 73 | 227 | 0.0 | 0.0 | 0.00 | 0.00 | 0.00 | 100 | 1016.8 |
| 20260510071758 | 73 | 227 | 0.0 | 0.0 | 0.00 | 0.00 | 0.00 | 100 | 1016.9 |
| 20260510071519 | 73 | 227 | 0.0 | 0.0 | 0.00 | 0.00 | 0.00 | 100 | 1016.9 |
| 20260510071406 | 73 | 227 | 0.0 | 0.0 | 0.00 | 0.00 | 0.00 | 100 | 1016.8 |
| 20260510071019 | 73 | 227 | 0.0 | 0.0 | 0.00 | 0.00 | 0.00 | 100 | 1016.8 |
| 20260510070619 | 73 | 227 | 0.0 | 0.0 | 0.00 | 0.00 | 0.00 | 100 | 1016.8 |
| 20260510070519 | 73 | 227 | 0.0 | 0.0 | 0.00 | 0.00 | 0.00 | 100 | 1016.8 |
| 20260510070128 | 73 | 227 | 0.0 | 0.0 | 0.00 | 0.00 | 0.00 | 100 | 1016.8 |
| 20260510070019 | 73 | 227 | 0.0 | 0.0 | 0.00 | 0.00 | 0.00 | 100 | 1016.8 |
| 20260510065735 | 73 | 227 | 0.0 | 0.0 | 0.00 | 0.00 | 0.00 | 100 | 1016.9 |
| 20260510065519 | 73 | 227 | 0.0 | 0.0 | 0.00 | 0.00 | 0.00 | 100 | 1016.9 |
| 20260510065409 | 73 | 227 | 0.0 | 0.0 | 0.00 | 0.00 | 0.00 | 100 | 1017.0 |
| 20260510065019 | 73 | 227 | 0.0 | 0.0 | 0.00 | 0.00 | 0.00 | 100 | 1017.0 |
| 20260510064802 | 74 | 227 | 0.0 | 0.0 | 0.00 | 0.00 | 0.00 | 100 | 1016.9 |
| 20260510064520 | 74 | 227 | 0.0 | 0.0 | 0.00 | 0.00 | 0.00 | 100 | 1016.9 |
| 20260510064243 | 74 | 227 | 0.0 | 0.0 | 0.00 | 0.00 | 0.00 | 100 | 1017.0 |
| 20260510064019 | 74 | 227 | 0.0 | 0.0 | 0.00 | 0.00 | 0.00 | 100 | 1017.0 |
| 20260510063519 | 74 | 227 | 0.0 | 0.0 | 0.00 | 0.00 | 0.00 | 100 | 1017.0 |
| 20260510063225 | 73 | 217 | 0.0 | 1.0 | 0.00 | 0.00 | 0.00 | 100 | 1017.1 |
| 20260510063155 | 73 | 227 | 0.0 | 0.0 | 0.00 | 0.00 | 0.00 | 100 | 1017.0 |
| 20260510063020 | 73 | 227 | 0.0 | 0.0 | 0.00 | 0.00 | 0.00 | 100 | 1017.0 |
| 20260510062520 | 73 | 217 | 0.0 | 1.0 | 0.00 | 0.00 | 0.00 | 100 | 1017.1 |
| 20260510062321 | 74 | 194 | 0.0 | 0.0 | 0.00 | 0.00 | 0.00 | 100 | 1017.1 |
| 20260510062020 | 74 | 194 | 0.0 | 0.0 | 0.00 | 0.00 | 0.00 | 100 | 1017.1 |
| 20260510061633 | 74 | 194 | 0.0 | 0.0 | 0.00 | 0.00 | 0.00 | 100 | 1017.1 |
| 20260510061520 | 74 | 194 | 0.0 | 0.0 | 0.00 | 0.00 | 0.00 | 100 | 1017.1 |
| 20260510061515 | 73 | 194 | 0.0 | 0.0 | 0.00 | 0.00 | 0.00 | 100 | 1017.2 |
| 20260510061235 | 73 | 194 | 0.0 | 0.0 | 0.00 | 0.00 | 0.00 | 100 | 1017.2 |
| 20260510061020 | 73 | 194 | 0.0 | 0.0 | 0.00 | 0.00 | 0.00 | 100 | 1017.2 |
| 20260510060840 | 73 | 194 | 0.0 | 0.0 | 0.00 | 0.00 | 0.00 | 100 | 1017.2 |
| 20260510060520 | 73 | 194 | 0.0 | 0.0 | 0.00 | 0.00 | 0.00 | 100 | 1017.2 |
| 20260510060129 | 73 | 194 | 0.0 | 0.0 | 0.00 | 0.00 | 0.00 | 100 | 1017.3 |
| 20260510060020 | 73 | 194 | 0.0 | 0.0 | 0.00 | 0.00 | 0.00 | 100 | 1017.3 |
| 20260510055848 | 74 | 194 | 0.0 | 0.0 | 0.00 | 0.00 | 0.00 | 100 | 1017.3 |
| 20260510055659 | 74 | 194 | 0.0 | 0.0 | 0.00 | 0.00 | 0.00 | 100 | 1017.3 |
| 20260510055520 | 74 | 194 | 0.0 | 0.0 | 0.00 | 0.00 | 0.00 | 100 | 1017.3 |
| 20260510055133 | 74 | 194 | 0.0 | 0.0 | 0.00 | 0.00 | 0.00 | 100 | 1017.4 |
| 20260510055020 | 74 | 194 | 0.0 | 0.0 | 0.00 | 0.00 | 0.00 | 100 | 1017.4 |
| 20260510054755 | 73 | 194 | 0.0 | 0.0 | 0.00 | 0.00 | 0.00 | 100 | 1017.4 |
| 20260510054520 | 73 | 194 | 0.0 | 0.0 | 0.00 | 0.00 | 0.00 | 100 | 1017.4 |
| 20260510054020 | 73 | 194 | 0.0 | 0.0 | 0.00 | 0.00 | 0.00 | 100 | 1017.4 |
| 20260510053520 | 73 | 194 | 0.0 | 0.0 | 0.00 | 0.00 | 0.00 | 100 | 1017.5 |
| 20260510053410 | 74 | 194 | 0.0 | 0.0 | 0.00 | 0.00 | 0.00 | 100 | 1017.6 |
| 20260510053324 | 74 | 194 | 0.0 | 0.0 | 0.00 | 0.00 | 0.00 | 100 | 1017.6 |
| 20260510053020 | 74 | 194 | 0.0 | 0.0 | 0.00 | 0.00 | 0.00 | 100 | 1017.6 |
| 20260510052653 | 74 | 303 | 0.0 | 0.0 | 0.00 | 0.00 | 0.00 | 100 | 1017.7 |
| 20260510052520 | 74 | 303 | 0.0 | 0.0 | 0.00 | 0.00 | 0.00 | 100 | 1017.7 |
| 20260510052020 | 74 | 303 | 0.0 | 0.0 | 0.00 | 0.00 | 0.00 | 100 | 1017.7 |
| 20260510051520 | 74 | 303 | 0.0 | 0.0 | 0.00 | 0.00 | 0.00 | 100 | 1017.8 |
| 20260510051020 | 74 | 303 | 0.0 | 0.0 | 0.00 | 0.00 | 0.00 | 100 | 1017.9 |
| 20260510050615 | 73 | 303 | 0.0 | 0.0 | 0.00 | 0.00 | 0.00 | 100 | 1018.0 |
| 20260510050520 | 73 | 303 | 0.0 | 0.0 | 0.00 | 0.00 | 0.00 | 100 | 1017.9 |
| 20260510050231 | 73 | 303 | 0.0 | 0.0 | 0.00 | 0.00 | 0.00 | 100 | 1017.9 |
| 20260510050020 | 73 | 303 | 0.0 | 0.0 | 0.00 | 0.00 | 0.00 | 100 | 1017.9 |
| 20260510045617 | 73 | 303 | 0.0 | 0.0 | 0.00 | 0.00 | 0.00 | 100 | 1018.1 |
| 20260510045520 | 73 | 303 | 0.0 | 0.0 | 0.00 | 0.00 | 0.00 | 100 | 1018.0 |
| 20260510045020 | 73 | 303 | 0.0 | 0.0 | 0.00 | 0.00 | 0.00 | 100 | 1018.0 |
| 20260510044813 | 73 | 303 | 0.0 | 0.0 | 0.00 | 0.00 | 0.00 | 100 | 1018.1 |
| 20260510044520 | 73 | 303 | 0.0 | 0.0 | 0.00 | 0.00 | 0.00 | 100 | 1018.1 |
| 20260510044115 | 73 | 303 | 0.0 | 0.0 | 0.00 | 0.00 | 0.00 | 100 | 1018.2 |
| 20260510044020 | 73 | 303 | 0.0 | 0.0 | 0.00 | 0.00 | 0.00 | 100 | 1018.1 |
| 20260510043520 | 73 | 303 | 0.0 | 0.0 | 0.00 | 0.00 | 0.00 | 100 | 1018.2 |
| 20260510043457 | 73 | 303 | 0.0 | 0.0 | 0.00 | 0.00 | 0.00 | 100 | 1018.3 |
| 20260510043020 | 73 | 303 | 0.0 | 0.0 | 0.00 | 0.00 | 0.00 | 100 | 1018.3 |
| 20260510042520 | 72 | 303 | 0.0 | 0.0 | 0.00 | 0.00 | 0.00 | 100 | 1018.2 |
| 20260510042020 | 72 | 303 | 0.0 | 0.0 | 0.00 | 0.00 | 0.00 | 100 | 1018.2 |
| 20260510041520 | 72 | 303 | 0.0 | 0.0 | 0.00 | 0.00 | 0.00 | 100 | 1018.2 |
| 20260510041151 | 72 | 303 | 0.0 | 0.0 | 0.00 | 0.00 | 0.00 | 100 | 1018.2 |
| 20260510041020 | 72 | 303 | 0.0 | 0.0 | 0.00 | 0.00 | 0.00 | 100 | 1018.2 |
| 20260510040930 | 72 | 303 | 0.0 | 0.0 | 0.00 | 0.00 | 0.00 | 100 | 1018.2 |
| 20260510040520 | 72 | 303 | 0.0 | 0.0 | 0.00 | 0.00 | 0.00 | 100 | 1018.2 |
| 20260510040020 | 72 | 303 | 0.0 | 0.0 | 0.00 | 0.00 | 0.00 | 100 | 1018.2 |
| 20260510035520 | 72 | 303 | 0.0 | 0.0 | 0.00 | 0.00 | 0.00 | 100 | 1018.1 |
| 20260510035223 | 73 | 303 | 0.0 | 0.0 | 0.00 | 0.00 | 0.00 | 100 | 1018.0 |
| 20260510035020 | 73 | 303 | 0.0 | 0.0 | 0.00 | 0.00 | 0.00 | 100 | 1018.0 |
| 20260510034615 | 73 | 303 | 0.0 | 0.0 | 0.00 | 0.00 | 0.00 | 100 | 1018.0 |
| 20260510034520 | 73 | 303 | 0.0 | 0.0 | 0.00 | 0.00 | 0.00 | 100 | 1018.0 |
| 20260510034115 | 73 | 303 | 0.0 | 0.0 | 0.00 | 0.00 | 0.00 | 100 | 1018.0 |
| 20260510034020 | 73 | 303 | 0.0 | 0.0 | 0.00 | 0.00 | 0.00 | 100 | 1018.0 |
| 20260510033520 | 73 | 303 | 0.0 | 0.0 | 0.00 | 0.00 | 0.00 | 100 | 1018.0 |
| 20260510033343 | 73 | 303 | 0.0 | 0.0 | 0.00 | 0.00 | 0.00 | 100 | 1018.0 |
| 20260510033020 | 73 | 303 | 0.0 | 0.0 | 0.00 | 0.00 | 0.00 | 100 | 1017.9 |
| 20260510032520 | 73 | 303 | 0.0 | 0.0 | 0.00 | 0.00 | 0.00 | 100 | 1018.0 |
| 20260510032518 | 73 | 303 | 0.0 | 0.0 | 0.00 | 0.00 | 0.00 | 100 | 1017.9 |
| 20260510032020 | 73 | 303 | 0.0 | 0.0 | 0.00 | 0.00 | 0.00 | 100 | 1017.9 |
| 20260510031759 | 73 | 303 | 0.0 | 0.0 | 0.00 | 0.00 | 0.00 | 100 | 1017.9 |
| 20260510031557 | 73 | 303 | 0.0 | 0.0 | 0.00 | 0.00 | 0.00 | 100 | 1017.8 |
| 20260510031520 | 73 | 303 | 0.0 | 0.0 | 0.00 | 0.00 | 0.00 | 100 | 1017.9 |
| 20260510031458 | 73 | 303 | 0.0 | 0.0 | 0.00 | 0.00 | 0.00 | 100 | 1017.8 |
| 20260510031020 | 73 | 303 | 0.0 | 0.0 | 0.00 | 0.00 | 0.00 | 100 | 1017.8 |
| 20260510030520 | 73 | 303 | 0.0 | 0.0 | 0.00 | 0.00 | 0.00 | 100 | 1017.9 |
| 20260510030057 | 74 | 303 | 0.0 | 0.0 | 0.00 | 0.00 | 0.00 | 100 | 1017.7 |
| 20260510030020 | 74 | 303 | 0.0 | 0.0 | 0.00 | 0.00 | 0.00 | 100 | 1017.7 |
| 20260510025520 | 74 | 303 | 0.0 | 0.0 | 0.00 | 0.00 | 0.00 | 100 | 1017.7 |
| 20260510025020 | 74 | 303 | 0.0 | 0.0 | 0.00 | 0.00 | 0.00 | 100 | 1017.7 |
| 20260510024520 | 74 | 303 | 0.0 | 0.0 | 0.00 | 0.00 | 0.00 | 100 | 1017.7 |
| 20260510024020 | 74 | 303 | 0.0 | 0.0 | 0.00 | 0.00 | 0.00 | 100 | 1017.7 |
| 20260510024002 | 74 | 303 | 0.0 | 0.0 | 0.00 | 0.00 | 0.00 | 100 | 1017.6 |
| 20260510023709 | 74 | 303 | 0.0 | 0.0 | 0.00 | 0.00 | 0.00 | 100 | 1017.5 |
| 20260510023521 | 74 | 303 | 0.0 | 0.0 | 0.00 | 0.00 | 0.00 | 100 | 1017.6 |
| 20260510023021 | 74 | 303 | 0.0 | 0.0 | 0.00 | 0.00 | 0.00 | 100 | 1017.5 |
| 20260510022959 | 74 | 303 | 0.0 | 0.0 | 0.00 | 0.00 | 0.00 | 100 | 1017.5 |
| 20260510022521 | 74 | 303 | 0.0 | 0.0 | 0.00 | 0.00 | 0.00 | 100 | 1017.5 |
| 20260510022021 | 74 | 303 | 0.0 | 0.0 | 0.00 | 0.00 | 0.00 | 100 | 1017.4 |
| 20260510022012 | 74 | 303 | 0.0 | 0.0 | 0.00 | 0.00 | 0.00 | 100 | 1017.3 |
| 20260510021521 | 74 | 303 | 0.0 | 0.0 | 0.00 | 0.00 | 0.00 | 100 | 1017.3 |
| 20260510021021 | 74 | 303 | 0.0 | 0.0 | 0.00 | 0.00 | 0.00 | 100 | 1017.3 |
| 20260510020749 | 75 | 303 | 0.0 | 0.0 | 0.00 | 0.00 | 0.00 | 100 | 1017.2 |
| 20260510020521 | 75 | 303 | 0.0 | 0.0 | 0.00 | 0.00 | 0.00 | 100 | 1017.2 |
| 20260510020021 | 75 | 303 | 0.0 | 0.0 | 0.00 | 0.00 | 0.00 | 100 | 1017.2 |
| 20260510015521 | 75 | 303 | 0.0 | 0.0 | 0.00 | 0.00 | 0.00 | 100 | 1017.1 |
| 20260510015021 | 75 | 303 | 0.0 | 0.0 | 0.00 | 0.00 | 0.00 | 100 | 1017.0 |
| 20260510014616 | 75 | 303 | 0.0 | 0.0 | 0.00 | 0.00 | 0.00 | 100 | 1016.9 |
| 20260510014521 | 75 | 303 | 0.0 | 0.0 | 0.00 | 0.00 | 0.00 | 100 | 1016.9 |
| 20260510014052 | 76 | 303 | 0.0 | 0.0 | 0.00 | 0.00 | 0.00 | 100 | 1016.9 |
| 20260510014021 | 75 | 303 | 0.0 | 0.0 | 0.00 | 0.00 | 0.00 | 100 | 1016.9 |
| 20260510013616 | 76 | 303 | 0.0 | 0.0 | 0.00 | 0.00 | 0.00 | 100 | 1016.8 |
| 20260510013521 | 76 | 303 | 0.0 | 0.0 | 0.00 | 0.00 | 0.00 | 100 | 1016.9 |
| 20260510013021 | 76 | 303 | 0.0 | 0.0 | 0.00 | 0.00 | 0.00 | 100 | 1016.8 |
| 20260510012603 | 77 | 303 | 0.0 | 0.0 | 0.00 | 0.00 | 0.00 | 100 | 1016.8 |
| 20260510012521 | 76 | 303 | 0.0 | 0.0 | 0.00 | 0.00 | 0.00 | 100 | 1016.8 |
| 20260510012021 | 77 | 303 | 0.0 | 0.0 | 0.00 | 0.00 | 0.00 | 100 | 1016.8 |
| 20260510011831 | 77 | 303 | 0.0 | 0.0 | 0.00 | 0.00 | 0.00 | 100 | 1016.8 |
| 20260510011521 | 77 | 303 | 0.0 | 0.0 | 0.00 | 0.00 | 0.00 | 100 | 1016.8 |
| 20260510011319 | 78 | 303 | 0.0 | 0.0 | 0.00 | 0.00 | 0.00 | 100 | 1016.7 |
| 20260510011147 | 77 | 303 | 0.0 | 0.0 | 0.00 | 0.00 | 0.00 | 100 | 1016.7 |
| 20260510011021 | 77 | 303 | 0.0 | 0.0 | 0.00 | 0.00 | 0.00 | 100 | 1016.7 |
| 20260510010521 | 78 | 303 | 0.0 | 0.0 | 0.00 | 0.00 | 0.00 | 100 | 1016.7 |
| 20260510010153 | 80 | 303 | 0.0 | 0.0 | 0.00 | 0.00 | 0.00 | 100 | 1016.4 |
| 20260510010021 | 78 | 303 | 0.0 | 0.0 | 0.00 | 0.00 | 0.00 | 100 | 1016.6 |
| 20260510005619 | 80 | 303 | 0.0 | 1.0 | 0.00 | 0.00 | 0.00 | 100 | 1016.3 |
| 20260510005521 | 79 | 303 | 0.0 | 0.0 | 0.00 | 0.00 | 0.00 | 100 | 1016.5 |
| 20260510005500 | 80 | 315 | 0.0 | 4.0 | 0.00 | 0.00 | 0.00 | 100 | 1016.1 |
| 20260510005325 | 80 | 315 | 0.0 | 4.0 | 0.00 | 0.00 | 0.00 | 100 | 1016.1 |
| 20260510005021 | 80 | 303 | 0.0 | 0.0 | 0.00 | 0.00 | 0.00 | 100 | 1016.4 |
| 20260510004813 | 80 | 272 | 0.0 | 4.0 | 0.00 | 0.00 | 0.00 | 100 | 1016.0 |
| 20260510004521 | 80 | 303 | 0.0 | 1.0 | 0.00 | 0.00 | 0.00 | 100 | 1016.3 |
| 20260510004103 | 80 | 272 | 0.0 | 4.0 | 0.00 | 0.00 | 0.00 | 100 | 1016.0 |
| 20260510004021 | 80 | 315 | 0.0 | 4.0 | 0.00 | 0.00 | 0.00 | 100 | 1016.1 |
| 20260510003521 | 80 | 272 | 0.0 | 4.0 | 0.00 | 0.00 | 0.00 | 100 | 1016.0 |
| 20260510003445 | 81 | 246 | 3.0 | 4.0 | 0.00 | 0.00 | 0.00 | 100 | 1015.9 |
| 20260510003021 | 81 | 257 | 3.0 | 5.0 | 0.00 | 0.00 | 0.00 | 100 | 1015.9 |
| 20260510002521 | 81 | 246 | 3.0 | 4.0 | 0.00 | 0.00 | 0.00 | 100 | 1015.9 |
| 20260510002021 | 81 | 226 | 2.0 | 6.0 | 0.00 | 0.00 | 0.00 | 100 | 1015.8 |
| 20260510001521 | 82 | 254 | 3.0 | 5.0 | 0.00 | 0.00 | 0.00 | 100 | 1015.9 |
| 20260510001021 | 82 | 275 | 2.0 | 5.0 | 0.00 | 0.00 | 0.00 | 100 | 1015.9 |
| 20260510000521 | 82 | 277 | 2.0 | 4.0 | 0.00 | 0.00 | 0.00 | 100 | 1015.8 |
| 20260510000021 | 82 | 279 | 1.0 | 5.0 | 0.00 | 0.00 | 0.00 | 100 | 1015.8 |
| 20260509235932 | 83 | 271 | 2.0 | 4.0 | 0.00 | 0.00 | 0.00 | 100 | 1015.8 |
| 20260509235521 | 83 | 271 | 2.0 | 4.0 | 0.00 | 0.00 | 0.00 | 100 | 1015.8 |
| 20260509235021 | 83 | 268 | 2.0 | 5.0 | 0.00 | 0.00 | 0.00 | 100 | 1015.7 |
| 20260509234746 | 83 | 278 | 4.0 | 5.0 | 0.00 | 0.00 | 0.00 | 100 | 1015.6 |
| 20260509234521 | 83 | 277 | 2.0 | 6.0 | 0.00 | 0.00 | 0.00 | 100 | 1015.7 |
| 20260509234414 | 83 | 226 | 3.0 | 6.0 | 0.00 | 0.00 | 0.00 | 100 | 1015.5 |
| 20260509234021 | 83 | 278 | 4.0 | 5.0 | 0.00 | 0.00 | 0.00 | 100 | 1015.6 |
| 20260509233706 | 83 | 226 | 3.0 | 6.0 | 0.00 | 0.00 | 0.00 | 100 | 1015.5 |
| 20260509233521 | 83 | 226 | 3.0 | 6.0 | 0.00 | 0.00 | 0.00 | 100 | 1015.5 |
| 20260509233128 | 84 | 253 | 1.0 | 8.0 | 0.00 | 0.00 | 0.00 | 100 | 1015.5 |
| 20260509233021 | 84 | 253 | 1.0 | 8.0 | 0.00 | 0.00 | 0.00 | 100 | 1015.5 |
| 20260509232521 | 84 | 272 | 5.0 | 11.0 | 0.00 | 0.00 | 0.00 | 100 | 1015.5 |
| 20260509232021 | 84 | 237 | 1.0 | 8.0 | 0.00 | 0.00 | 0.00 | 100 | 1015.5 |
| 20260509231522 | 85 | 268 | 5.0 | 10.0 | 0.00 | 0.00 | 0.00 | 100 | 1015.4 |
| 20260509231514 | 85 | 279 | 3.0 | 10.0 | 0.00 | 0.00 | 0.00 | 100 | 1015.3 |
| 20260509231021 | 85 | 279 | 3.0 | 10.0 | 0.00 | 0.00 | 0.00 | 100 | 1015.3 |
| 20260509230521 | 85 | 240 | 6.0 | 8.0 | 0.00 | 0.00 | 0.00 | 100 | 1015.2 |
| 20260509230420 | 86 | 271 | 8.0 | 11.0 | 0.00 | 0.00 | 0.00 | 100 | 1015.1 |
| 20260509230210 | 86 | 271 | 8.0 | 11.0 | 0.00 | 0.00 | 0.00 | 100 | 1015.1 |
| 20260509230021 | 86 | 271 | 8.0 | 11.0 | 0.00 | 0.00 | 0.00 | 100 | 1015.1 |
| 20260509225521 | 86 | 262 | 9.0 | 10.0 | 0.00 | 0.00 | 0.00 | 100 | 1015.1 |
| 20260509225430 | 86 | 289 | 2.0 | 11.0 | 0.00 | 0.00 | 0.00 | 100 | 1015.0 |
| 20260509225021 | 86 | 289 | 2.0 | 11.0 | 0.00 | 0.00 | 0.00 | 100 | 1015.0 |
| 20260509224604 | 87 | 244 | 10.0 | 13.0 | 0.00 | 0.00 | 0.00 | 100 | 1015.0 |
| 20260509224521 | 87 | 244 | 10.0 | 13.0 | 0.00 | 0.00 | 0.00 | 100 | 1015.0 |
| 20260509224408 | 88 | 248 | 10.0 | 12.0 | 0.00 | 0.00 | 0.00 | 100 | 1015.0 |
| 20260509224149 | 87 | 187 | 1.0 | 10.0 | 0.00 | 0.00 | 0.00 | 100 | 1015.0 |
| 20260509224021 | 87 | 187 | 1.0 | 10.0 | 0.00 | 0.00 | 0.00 | 100 | 1015.0 |
| 20260509223522 | 87 | 223 | 10.0 | 13.0 | 0.00 | 0.00 | 0.00 | 100 | 1014.9 |
| 20260509223022 | 87 | 236 | 10.0 | 12.0 | 0.00 | 0.00 | 0.00 | 100 | 1015.0 |
| 20260509222622 | 88 | 248 | 10.0 | 12.0 | 0.00 | 0.00 | 0.00 | 100 | 1015.0 |
| 20260509222522 | 88 | 248 | 10.0 | 12.0 | 0.00 | 0.00 | 0.00 | 100 | 1015.0 |
| 20260509222149 | 88 | 244 | 2.0 | 11.0 | 0.00 | 0.00 | 0.00 | 100 | 1014.9 |
| 20260509222022 | 88 | 244 | 2.0 | 11.0 | 0.00 | 0.00 | 0.00 | 100 | 1014.9 |
| 20260509221634 | 88 | 281 | 9.0 | 11.0 | 0.00 | 0.00 | 0.00 | 100 | 1014.9 |
| 20260509221522 | 88 | 281 | 9.0 | 11.0 | 0.00 | 0.00 | 0.00 | 100 | 1014.9 |
| 20260509221150 | 89 | 240 | 10.0 | 11.0 | 0.00 | 0.00 | 0.00 | 100 | 1014.9 |
| 20260509221022 | 89 | 240 | 10.0 | 11.0 | 0.00 | 0.00 | 0.00 | 100 | 1014.9 |
| 20260509220522 | 88 | 251 | 6.0 | 13.0 | 0.00 | 0.00 | 0.00 | 100 | 1014.9 |
| 20260509220022 | 88 | 253 | 5.0 | 13.0 | 0.00 | 0.00 | 0.00 | 100 | 1014.8 |
| 20260509215522 | 89 | 254 | 5.0 | 14.0 | 0.00 | 0.00 | 0.00 | 100 | 1014.7 |
| 20260509215022 | 89 | 212 | 0.0 | 13.0 | 0.00 | 0.00 | 0.00 | 100 | 1014.7 |
| 20260509214522 | 90 | 215 | 6.0 | 11.0 | 0.00 | 0.00 | 0.00 | 100 | 1014.6 |
| 20260509214122 | 90 | 257 | 8.0 | 12.0 | 0.00 | 0.00 | 0.00 | 100 | 1014.6 |
| 20260509214022 | 90 | 257 | 8.0 | 12.0 | 0.00 | 0.00 | 0.00 | 100 | 1014.6 |
| 20260509213740 | 90 | 234 | 8.0 | 15.0 | 0.00 | 0.00 | 0.00 | 100 | 1014.6 |
| 20260509213703 | 90 | 234 | 8.0 | 15.0 | 0.00 | 0.00 | 0.00 | 100 | 1014.6 |
| 20260509213522 | 90 | 234 | 8.0 | 15.0 | 0.00 | 0.00 | 0.00 | 100 | 1014.6 |
| 20260509213118 | 91 | 244 | 13.0 | 15.0 | 0.00 | 0.00 | 0.00 | 100 | 1014.6 |
| 20260509213050 | 92 | 225 | 11.0 | 14.0 | 0.00 | 0.00 | 0.00 | 100 | 1014.5 |
| 20260509213022 | 91 | 244 | 13.0 | 15.0 | 0.00 | 0.00 | 0.00 | 100 | 1014.6 |
| 20260509212652 | 91 | 261 | 10.0 | 17.0 | 0.00 | 0.00 | 0.00 | 100 | 1014.6 |
| 20260509212522 | 91 | 261 | 10.0 | 17.0 | 0.00 | 0.00 | 0.00 | 100 | 1014.6 |
| 20260509212022 | 90 | 233 | 6.0 | 13.0 | 0.00 | 0.00 | 0.00 | 100 | 1014.5 |
| 20260509211639 | 90 | 267 | 11.0 | 16.0 | 0.00 | 0.00 | 0.00 | 100 | 1014.5 |
| 20260509211522 | 90 | 267 | 11.0 | 16.0 | 0.00 | 0.00 | 0.00 | 100 | 1014.5 |
| 20260509211022 | 91 | 202 | 9.0 | 17.0 | 0.00 | 0.00 | 0.00 | 100 | 1014.5 |
| 20260509210522 | 92 | 225 | 11.0 | 14.0 | 0.00 | 0.00 | 0.00 | 100 | 1014.5 |
| 20260509210236 | 92 | 267 | 9.0 | 15.0 | 0.00 | 0.00 | 0.00 | 100 | 1014.6 |
| 20260509210022 | 91 | 232 | 5.0 | 11.0 | 0.00 | 0.00 | 0.00 | 100 | 1014.5 |
| 20260509205652 | 92 | 271 | 10.0 | 16.0 | 0.00 | 0.00 | 0.00 | 100 | 1014.5 |
| 20260509205522 | 92 | 271 | 10.0 | 16.0 | 0.00 | 0.00 | 0.00 | 100 | 1014.5 |
| 20260509205022 | 92 | 270 | 6.0 | 14.0 | 0.00 | 0.00 | 0.00 | 100 | 1014.6 |
| 20260509204627 | 93 | 243 | 11.0 | 17.0 | 0.00 | 0.00 | 0.00 | 100 | 1014.6 |
| 20260509204522 | 93 | 243 | 11.0 | 17.0 | 0.00 | 0.00 | 0.00 | 100 | 1014.6 |
| 20260509204121 | 92 | 267 | 9.0 | 15.0 | 0.00 | 0.00 | 0.00 | 100 | 1014.6 |
| 20260509204022 | 92 | 267 | 9.0 | 15.0 | 0.00 | 0.00 | 0.00 | 100 | 1014.6 |
| 20260509203849 | 91 | 246 | 12.0 | 17.0 | 0.00 | 0.00 | 0.00 | 100 | 1014.7 |
| 20260509203647 | 91 | 246 | 12.0 | 17.0 | 0.00 | 0.00 | 0.00 | 100 | 1014.7 |
| 20260509203522 | 91 | 246 | 12.0 | 17.0 | 0.00 | 0.00 | 0.00 | 100 | 1014.7 |
| 20260509203137 | 93 | 205 | 11.0 | 14.0 | 0.00 | 0.00 | 0.00 | 100 | 1014.7 |
| 20260509203102 | 93 | 244 | 4.0 | 17.0 | 0.00 | 0.00 | 0.00 | 100 | 1014.6 |
| 20260509203022 | 93 | 205 | 11.0 | 14.0 | 0.00 | 0.00 | 0.00 | 100 | 1014.7 |
| 20260509202630 | 93 | 244 | 4.0 | 17.0 | 0.00 | 0.00 | 0.00 | 100 | 1014.6 |
| 20260509202523 | 93 | 244 | 4.0 | 17.0 | 0.00 | 0.00 | 0.00 | 100 | 1014.6 |
| 20260509202141 | 93 | 201 | 9.0 | 16.0 | 0.00 | 0.00 | 0.00 | 100 | 1014.7 |
| 20260509202022 | 93 | 201 | 9.0 | 16.0 | 0.00 | 0.00 | 0.00 | 100 | 1014.7 |
| 20260509201639 | 93 | 253 | 10.0 | 18.0 | 0.00 | 0.00 | 0.00 | 100 | 1014.7 |
| 20260509201522 | 93 | 253 | 10.0 | 18.0 | 0.00 | 0.00 | 0.00 | 100 | 1014.7 |
| 20260509201022 | 92 | 232 | 13.0 | 16.0 | 0.00 | 0.00 | 0.00 | 100 | 1014.8 |
| 20260509200522 | 93 | 251 | 11.0 | 17.0 | 0.00 | 0.00 | 0.00 | 100 | 1014.8 |
| 20260509200116 | 94 | 261 | 7.0 | 16.0 | 0.00 | 0.00 | 0.00 | 100 | 1014.7 |
| 20260509200022 | 94 | 261 | 7.0 | 16.0 | 0.00 | 0.00 | 0.00 | 100 | 1014.7 |
| 20260509195522 | 94 | 271 | 8.0 | 16.0 | 0.00 | 0.00 | 0.00 | 100 | 1014.9 |
| 20260509195236 | 94 | 251 | 8.0 | 18.0 | 0.00 | 0.00 | 0.00 | 100 | 1014.8 |
| 20260509195022 | 94 | 251 | 8.0 | 18.0 | 0.00 | 0.00 | 0.00 | 100 | 1014.8 |
| 20260509194522 | 94 | 279 | 6.0 | 18.0 | 0.00 | 0.00 | 0.00 | 100 | 1014.9 |
| 20260509194208 | 92 | 250 | 13.0 | 15.0 | 0.00 | 0.00 | 0.00 | 100 | 1015.1 |
| 20260509194022 | 92 | 250 | 13.0 | 15.0 | 0.00 | 0.00 | 0.00 | 100 | 1015.1 |
| 20260509193522 | 93 | 237 | 10.0 | 17.0 | 0.00 | 0.00 | 0.00 | 100 | 1015.1 |
| 20260509193249 | 93 | 248 | 12.0 | 17.0 | 0.00 | 0.00 | 0.00 | 100 | 1015.1 |
| 20260509193022 | 93 | 248 | 12.0 | 17.0 | 0.00 | 0.00 | 0.00 | 100 | 1015.1 |
| 20260509192654 | 93 | 255 | 9.0 | 15.0 | 0.00 | 0.00 | 0.00 | 100 | 1015.1 |
| 20260509192613 | 94 | 201 | 12.0 | 17.0 | 0.00 | 0.00 | 0.00 | 100 | 1015.1 |
| 20260509192522 | 93 | 255 | 9.0 | 15.0 | 0.00 | 0.00 | 0.00 | 100 | 1015.1 |
| 20260509192248 | 94 | 201 | 12.0 | 17.0 | 0.00 | 0.00 | 0.00 | 100 | 1015.1 |
| 20260509192022 | 94 | 201 | 12.0 | 17.0 | 0.00 | 0.00 | 0.00 | 100 | 1015.1 |
| 20260509191646 | 95 | 236 | 10.0 | 17.0 | 0.00 | 0.00 | 0.00 | 100 | 1015.2 |
| 20260509191522 | 95 | 236 | 10.0 | 17.0 | 0.00 | 0.00 | 0.00 | 100 | 1015.2 |
| 20260509191250 | 95 | 225 | 5.0 | 14.0 | 0.00 | 0.00 | 0.00 | 100 | 1015.3 |
| 20260509191022 | 95 | 225 | 5.0 | 14.0 | 0.00 | 0.00 | 0.00 | 100 | 1015.3 |
| 20260509190522 | 95 | 230 | 7.0 | 17.0 | 0.00 | 0.00 | 0.00 | 100 | 1015.4 |
| 20260509190324 | 94 | 246 | 7.0 | 19.0 | 0.00 | 0.00 | 0.00 | 100 | 1015.5 |
| 20260509190022 | 93 | 265 | 4.0 | 19.0 | 0.00 | 0.00 | 0.00 | 100 | 1015.6 |
| 20260509185749 | 93 | 319 | 5.0 | 18.0 | 0.00 | 0.00 | 0.00 | 100 | 1015.6 |
| 20260509185522 | 93 | 319 | 5.0 | 18.0 | 0.00 | 0.00 | 0.00 | 100 | 1015.6 |
| 20260509185251 | 94 | 225 | 6.0 | 13.0 | 0.00 | 0.00 | 0.00 | 100 | 1015.6 |
| 20260509185022 | 94 | 225 | 6.0 | 13.0 | 0.00 | 0.00 | 0.00 | 100 | 1015.6 |
| 20260509184657 | 94 | 246 | 7.0 | 19.0 | 0.00 | 0.00 | 0.00 | 100 | 1015.5 |
| 20260509184522 | 94 | 246 | 7.0 | 19.0 | 0.00 | 0.00 | 0.00 | 100 | 1015.5 |
| 20260509184239 | 94 | 153 | 7.0 | 18.0 | 0.00 | 0.00 | 0.00 | 100 | 1015.6 |
| 20260509184236 | 94 | 234 | 14.0 | 15.0 | 0.00 | 0.00 | 0.00 | 100 | 1015.5 |
| 20260509184234 | 95 | 247 | 9.0 | 14.0 | 0.00 | 0.00 | 0.00 | 100 | 1015.5 |
| 20260509184022 | 94 | 234 | 14.0 | 15.0 | 0.00 | 0.00 | 0.00 | 100 | 1015.5 |
| 20260509183522 | 94 | 274 | 8.0 | 19.0 | 0.00 | 0.00 | 0.00 | 100 | 1015.5 |
| 20260509183148 | 94 | 217 | 4.0 | 16.0 | 0.00 | 0.00 | 0.00 | 100 | 1015.6 |
| 20260509183022 | 94 | 217 | 4.0 | 16.0 | 0.00 | 0.00 | 0.00 | 100 | 1015.6 |
| 20260509182754 | 94 | 153 | 7.0 | 18.0 | 0.00 | 0.00 | 0.00 | 100 | 1015.6 |
| 20260509182522 | 94 | 153 | 7.0 | 18.0 | 0.00 | 0.00 | 0.00 | 100 | 1015.6 |
| 20260509182150 | 95 | 247 | 9.0 | 14.0 | 0.00 | 0.00 | 0.00 | 100 | 1015.5 |
| 20260509182022 | 95 | 247 | 9.0 | 14.0 | 0.00 | 0.00 | 0.00 | 100 | 1015.5 |
| 20260509181935 | 95 | 258 | 10.0 | 19.0 | 0.00 | 0.00 | 0.00 | 100 | 1015.6 |
| 20260509181631 | 95 | 258 | 10.0 | 19.0 | 0.00 | 0.00 | 0.00 | 100 | 1015.6 |
| 20260509181522 | 95 | 258 | 10.0 | 19.0 | 0.00 | 0.00 | 0.00 | 100 | 1015.6 |
| 20260509181244 | 93 | 195 | 7.0 | 16.0 | 0.00 | 0.00 | 0.00 | 100 | 1015.6 |
| 20260509181022 | 93 | 195 | 7.0 | 16.0 | 0.00 | 0.00 | 0.00 | 100 | 1015.6 |
| 20260509180643 | 94 | 234 | 8.0 | 14.0 | 0.00 | 0.00 | 0.00 | 100 | 1015.6 |
| 20260509180628 | 95 | 237 | 12.0 | 18.0 | 0.00 | 0.00 | 0.00 | 100 | 1015.5 |
| 20260509180548 | 96 | 257 | 8.0 | 15.0 | 0.00 | 0.00 | 0.00 | 100 | 1015.6 |
| 20260509180522 | 94 | 234 | 8.0 | 14.0 | 0.00 | 0.00 | 0.00 | 100 | 1015.6 |